星链-34212 (STARLINK-34212)

导读

STARLINK-34212是美国SpaceX星链星座的卫星,于2025年5月24日发射,属于SpaceX打造的全球卫星互联网组网项目的组成部分。星链通过大规模低轨卫星部署,可为全球偏远地区、海上空中等场景提供高速互联网接入服务,该卫星进一步扩充了星链星座的服务覆盖能力与组网规模。

基本信息
目录编号:
64139
目录名称:
STARLINK-34212
国际标识:
2025-111S
轨道中心:
EARTH
卫星名称:
星链-34212
卫星全名:
星链-34212 (STARLINK-34212)
卫星状态:
在轨 (已飞行468 天)
发射日期:
2025-05-24 UTC
国别 :
美国 (US)
星等 :
--
轨道信息
数据来源 国际轨道数据
星历时间: 2026-09-04T10:49:23+0800
6小时前
查看轨道信息
半长轴: 6861.17km
偏心率: 0.0001378
轨道倾角: 43.002°
近地点辐角 269.951°
升交点赤经 150.031°
平近点角 90.119°
近地点: 482.087km
远地点: 483.979km
周期: 94.266分钟
每日圈数: 15.275857
详细信息
固有亮度:
5
最大亮度:
2.5
卫星平台:
Starlink V1.0
覆盖范围:
全球
运营商:
太空探索技术公司
运营商所在国:
美国
制造商(研发单位):
太空探索技术公司
制造商所在国:
美国
使用方式:
暂无
卫星简介
Starlink 计划是 SpaceX 推出的全球卫星互联网项目,通过发射低轨道卫星,为全球尤其是偏远地区提供高速、低延迟的互联网服务。自 2019 年起,Starlink 已部署数千颗卫星,旨在缩小全球数字鸿沟,推动互联网普及。该项目还为军事、航空等行业提供通信支持,带来广泛经济效益。
2D轨道图
3D轨道图
轨道高度分析图
轨道倾角分析图
轨道综合分析图
查看轨道综合分析图